Zurück zum Katalog

METOP-A

AktivWetterSSO
NORAD 29499·PAYLOAD·🇪🇺 EU

Gestartet Oct 19, 2006 von Baikonur Cosmodrome

Loading…

Nächste Überflüge (nächste 24 Stunden)

TLE

AktuellSource: Space-Track

Epoche: Sep 14, 2026, 14:50 UTC

1 29499U 06044A   26257.61812350  .00002178  00000-0  25281-3 0  9994
2 29499  98.3389   7.1676 0174045 143.8943 344.6351 14.76215227 38649

Verfolge METOP-A in Echtzeit mit AllMySat

Download on the App Store